Bush, KY

5:25 AM EST on February 10, 2016 (GMT -0500)
London-Corbin / McKee

Weather History for KLOZ - April, 2013

Change the Weather History Date:

Tuesday, April 16, 2013

  Actual Average Record
Temperature  
Mean Temperature 70 °F 57 °F  
Max Temperature 83 °F 69 °F 86 °F (2002)
Min Temperature 56 °F 45 °F 25 °F (1962)
Degree Days  
Heating Degree Days 0 9  
Month to date heating degree days 160 177  
Since 1 July heating degree days 4300 4002  
Cooling Degree Days 5 1  
Month to date cooling degree days 13 8  
Year to date cooling degree days 13 11  
Growing Degree Days 20 (Base 50)    
Moisture  
Dew Point 56 °F    
Average Humidity 60    
Maximum Humidity 80    
Minimum Humidity 40    
Precipitation  
Precipitation T in 0.13 in 2.62 in (1998)
Month to date precipitation 1.50 2.07  
Year to date precipitation 13.74 13.37  
Sea Level Pressure  
Sea Level Pressure 30.10 in    
Wind  
Wind Speed 6 mph (SSW)    
Max Wind Speed 16 mph    
Max Gust Speed 23 mph    
Visibility 10 miles    
Events      
T = Trace of Precipitation, MM = Missing Value Source: NWS Daily Summary

Daily Weather History Graph

Daily Weather History Graph

Search for Another Location

Airport or City:

Trip Planner

Search our weather history database for the weather conditions in past years. The results will help you decide how hot, cold, wet, or windy it might be!

Date:

Astronomy

Apr. 16, 2013 Rise Set
Actual Time 7:00 AM EDT 8:12 PM EDT
Civil Twilight 6:33 AM EDT 8:39 PM EDT
Nautical Twilight 6:01 AM EDT 9:11 PM EDT
Astronomical Twilight 5:27 AM EDT 9:45 PM EDT
Moon 11:21 AM EDT (4/16) 1:05 AM EDT (4/16)
Length of Visible Light 14h 05m
Length of Day
13h 12m
Waxing Crescent, 33% of the Moon is Illuminated
Apr 16
Waxing Crescent
Apr 18
First Quarter
Apr 25
Full
May 2
Last Quarter
May 9
New

Hourly Weather History & Observations

Time (EDT) Temp. Heat Index Dew Point Humidity Pressure Visibility Wind Dir Wind Speed Gust Speed Precip Events Conditions
12:53 AM 63.0 °F - 51.1 °F 65% 30.03 in 10.0 mi South 3.5 mph - N/A   Clear
1:53 AM 63.0 °F - 52.0 °F 67% 30.03 in 10.0 mi South 3.5 mph - N/A   Clear
2:53 AM 63.0 °F - 52.0 °F 67% 30.02 in 10.0 mi South 4.6 mph - N/A   Clear
3:53 AM 62.1 °F - 52.0 °F 70% 30.02 in 10.0 mi South 3.5 mph - N/A   Clear
4:53 AM 63.0 °F - 52.0 °F 67% 30.03 in 10.0 mi South 6.9 mph - N/A   Clear
5:53 AM 61.0 °F - 52.0 °F 72% 30.07 in 10.0 mi SSW 3.5 mph - N/A   Clear
6:53 AM 57.9 °F - 52.0 °F 81% 30.10 in 10.0 mi Calm Calm - N/A   Clear
7:53 AM 57.9 °F - 52.0 °F 81% 30.14 in 10.0 mi Calm Calm - N/A   Mostly Cloudy
8:53 AM 64.9 °F - 55.0 °F 70% 30.16 in 10.0 mi South 5.8 mph - N/A   Scattered Clouds
9:53 AM 68.0 °F - 55.0 °F 63% 30.18 in 10.0 mi SSW 10.4 mph - N/A   Overcast
10:53 AM 71.1 °F - 55.9 °F 59% 30.19 in 10.0 mi SSW 6.9 mph - N/A   Scattered Clouds
11:53 AM 73.0 °F - 57.0 °F 57% 30.19 in 10.0 mi SSW 5.8 mph - N/A   Overcast
12:53 PM 78.1 °F - 59.0 °F 52% 30.16 in 10.0 mi SSW 12.7 mph 23.0 mph N/A   Scattered Clouds
1:53 PM 79.0 °F - 57.9 °F 48% 30.14 in 10.0 mi SW 8.1 mph - N/A   Partly Cloudy
2:53 PM 80.1 °F 80.6 °F 57.9 °F 47% 30.11 in 10.0 mi Variable 5.8 mph - N/A   Partly Cloudy
3:53 PM 82.0 °F 82.0 °F 57.9 °F 44% 30.09 in 10.0 mi South 9.2 mph 17.3 mph N/A   Partly Cloudy
4:53 PM 80.1 °F 80.6 °F 57.9 °F 47% 30.07 in 10.0 mi SSW 5.8 mph - N/A   Partly Cloudy
5:53 PM 82.0 °F 81.6 °F 55.9 °F 41% 30.07 in 10.0 mi WSW 11.5 mph - N/A   Clear
6:53 PM 80.1 °F 80.6 °F 57.9 °F 47% 30.08 in 10.0 mi WSW 9.2 mph - N/A   Mostly Cloudy
7:53 PM 79.0 °F - 57.9 °F 48% 30.09 in 10.0 mi WSW 4.6 mph - N/A   Scattered Clouds
8:53 PM 73.0 °F - 61.0 °F 66% 30.11 in 10.0 mi Calm Calm - 0.00 in   Scattered Clouds
9:53 PM 71.1 °F - 62.1 °F 73% 30.13 in 10.0 mi SSE 3.5 mph - 0.00 in   Mostly Cloudy
10:53 PM 70.0 °F - 61.0 °F 73% 30.12 in 10.0 mi SSW 3.5 mph - N/A   Clear
11:53 PM 68.0 °F - 61.0 °F 78% 30.13 in 10.0 mi SSW 3.5 mph - N/A   Scattered Clouds